TimeCDT,TemperatureF,Dew PointF,Humidity,Sea Level PressureIn,VisibilityMPH,Wind Direction,Wind SpeedMPH,Gust SpeedMPH,PrecipitationIn,Events,Conditions,WindDirDegrees,DateUTC
12:55 AM,39.2,39.2,100,30.07,0.5,Calm,Calm,-,N/A,,Mostly Cloudy,0,2013-10-20 05:55:00
1:55 AM,39.2,39.2,100,30.07,1.2,Calm,Calm,-,N/A,,Mostly Cloudy,0,2013-10-20 06:55:00
2:55 AM,37.4,37.4,100,30.06,6.0,Calm,Calm,-,N/A,,Clear,0,2013-10-20 07:55:00
3:15 AM,37.4,37.4,100,30.06,10.0,Calm,Calm,-,N/A,,Clear,0,2013-10-20 08:15:00
3:35 AM,37.4,37.4,100,30.06,10.0,Calm,Calm,-,N/A,,Clear,0,2013-10-20 08:35:00
3:55 AM,37.4,37.4,100,30.07,10.0,Calm,Calm,-,N/A,,Clear,0,2013-10-20 08:55:00
4:15 AM,37.4,37.4,100,30.06,10.0,ESE,3.5,-,N/A,,Clear,110,2013-10-20 09:15:00
4:35 AM,39.2,39.2,100,30.06,10.0,Calm,Calm,-,N/A,,Clear,0,2013-10-20 09:35:00
4:55 AM,37.4,37.4,100,30.07,10.0,ESE,3.5,-,N/A,,Clear,110,2013-10-20 09:55:00
5:15 AM,37.4,37.4,100,30.07,10.0,Calm,Calm,-,N/A,,Clear,0,2013-10-20 10:15:00
5:35 AM,37.4,37.4,100,30.08,10.0,Calm,Calm,-,N/A,,Clear,0,2013-10-20 10:35:00
5:55 AM,37.4,37.4,100,30.08,10.0,Calm,Calm,-,N/A,,Clear,0,2013-10-20 10:55:00
6:55 AM,37.4,37.4,100,30.09,10.0,Calm,Calm,-,N/A,,Clear,0,2013-10-20 11:55:00
7:55 AM,39.2,39.2,100,30.10,10.0,Calm,Calm,-,N/A,,Clear,0,2013-10-20 12:55:00
8:55 AM,46.4,44.6,93,30.12,10.0,Calm,Calm,-,N/A,,Clear,0,2013-10-20 13:55:00
9:55 AM,53.6,46.4,77,30.12,10.0,Variable,3.5,-,N/A,,Clear,0,2013-10-20 14:55:00
10:55 AM,59.0,44.6,59,30.11,10.0,Variable,4.6,-,N/A,,Clear,0,2013-10-20 15:55:00
11:55 AM,62.6,44.6,52,30.10,10.0,SE,4.6,-,N/A,,Clear,130,2013-10-20 16:55:00
12:55 PM,64.4,42.8,45,30.08,10.0,SW,6.9,-,N/A,,Clear,230,2013-10-20 17:55:00
1:55 PM,66.2,42.8,43,30.05,10.0,Variable,6.9,-,N/A,,Clear,0,2013-10-20 18:55:00
2:55 PM,66.2,44.6,46,30.03,10.0,Variable,5.8,-,N/A,,Clear,0,2013-10-20 19:55:00
3:55 PM,68.0,42.8,40,30.02,10.0,SW,5.8,-,N/A,,Clear,220,2013-10-20 20:55:00
4:55 PM,66.2,42.8,43,30.01,10.0,Calm,Calm,-,N/A,,Clear,0,2013-10-20 21:55:00
5:55 PM,62.6,44.6,52,30.00,10.0,Calm,Calm,-,N/A,,Clear,0,2013-10-20 22:55:00
6:55 PM,53.6,46.4,77,30.01,10.0,Calm,Calm,-,N/A,,Clear,0,2013-10-20 23:55:00
7:55 PM,51.8,46.4,82,30.02,10.0,Calm,Calm,-,N/A,,Clear,0,2013-10-21 00:55:00
8:55 PM,48.2,46.4,93,30.02,10.0,Calm,Calm,-,N/A,,Clear,0,2013-10-21 01:55:00
9:55 PM,48.2,44.6,87,30.02,10.0,Calm,Calm,-,N/A,,Clear,0,2013-10-21 02:55:00
10:55 PM,46.4,44.6,93,30.03,10.0,Calm,Calm,-,N/A,,Clear,0,2013-10-21 03:55:00
11:55 PM,44.6,44.6,100,30.02,10.0,Calm,Calm,-,N/A,,Clear,0,2013-10-21 04:55:00